Location: Wapato
(46.4478°N, 120.4212°W)
Time: 13:44:40
(UTC+00:00)

Explorer 7 - Pass Details

Date: 18 May 2026
Orbit: 426 x 534 km, 50.2° (Epoch: 8 June)

Event Time Altitude Azimuth Distance (km) Brightness Sun altitude
Rises 17:48:09 0° 290° (WNW) 2,550 9.9 52.3°
Reaches altitude 10° 17:50:27 10° 280° (W) 1,687 9.1 52.6°
Maximum altitude 17:53:51 31° 217° (SW) 901 8.3 53.1°
Drops below altitude 10° 17:57:22 10° 154° (SSE) 1,734 10.1 53.6°
Sets 17:59:45 0° 144° (SE) 2,633 10.8 53.9°
